ODS645 LROP-LTFM

Flight info

Callsign ODS645
Flight time 1h 5m
Altitude 23000
Route POLUN DCT RASUB DCT BULEN DCT VABUR L605 RIXEN
Aircraft DH8D/M-SDE2E3FGRY/H

Departure

Time 2026-05-05 18:01
Airport Bucharest Henri Coandă International Airport (LROP)

Arrival

Time 2026-05-05 19:07
Airport İstanbul Airport (LTFM)
Time Latitude Longitude Altitude Speed Heading
2026-05-05 17:29 44.57132 26.08005 319 ft 0 kts 177°
2026-05-05 17:49 44.57131 26.08005 319 ft 0 kts 177°
2026-05-05 17:49 44.57136 26.08005 319 ft 2 kts 177°
2026-05-05 17:49 44.57145 26.08004 319 ft 2 kts 172°
2026-05-05 17:49 44.57159 26.07999 319 ft 2 kts 156°
2026-05-05 17:50 44.57172 26.07988 319 ft 2 kts 140°
2026-05-05 17:50 44.57182 26.07973 319 ft 2 kts 125°
2026-05-05 17:50 44.57190 26.07955 319 ft 2 kts 110°
2026-05-05 17:50 44.57193 26.07935 319 ft 2 kts 94°
2026-05-05 17:51 44.57193 26.07920 320 ft 0 kts 86°
2026-05-05 17:54 44.57193 26.07933 319 ft 6 kts 87°
2026-05-05 17:54 44.57198 26.08001 319 ft 11 kts 83°
2026-05-05 17:54 44.57209 26.08159 319 ft 17 kts 84°
2026-05-05 17:54 44.57225 26.08361 317 ft 20 kts 84°
2026-05-05 17:55 44.57292 26.08492 316 ft 18 kts 355°
2026-05-05 17:55 44.57422 26.08476 315 ft 19 kts 356°
2026-05-05 17:55 44.57503 26.08613 315 ft 25 kts 83°
2026-05-05 17:55 44.57527 26.08904 315 ft 33 kts 85°
2026-05-05 17:56 44.57550 26.09226 315 ft 28 kts 83°
2026-05-05 17:56 44.57566 26.09444 315 ft 20 kts 84°
2026-05-05 17:56 44.57583 26.09690 318 ft 28 kts 83°
2026-05-05 17:56 44.57603 26.09944 319 ft 27 kts 83°
2026-05-05 17:57 44.57625 26.10213 317 ft 23 kts 84°
2026-05-05 17:57 44.57644 26.10475 315 ft 27 kts 84°
2026-05-05 17:57 44.57664 26.10743 312 ft 27 kts 83°
2026-05-05 17:57 44.57685 26.11012 309 ft 28 kts 84°
2026-05-05 17:58 44.57705 26.11281 309 ft 27 kts 84°
2026-05-05 17:58 44.57725 26.11529 309 ft 20 kts 82°
2026-05-05 17:58 44.57744 26.11747 309 ft 24 kts 84°
2026-05-05 17:58 44.57758 26.11949 309 ft 18 kts 84°
2026-05-05 17:59 44.57775 26.12183 309 ft 28 kts 85°
2026-05-05 17:59 44.57791 26.12420 309 ft 25 kts 84°
2026-05-05 17:59 44.57812 26.12683 308 ft 24 kts 83°
2026-05-05 17:59 44.57863 26.12844 306 ft 13 kts 15°
2026-05-05 18:00 44.57945 26.12786 307 ft 12 kts 321°
2026-05-05 18:00 44.57982 26.12728 308 ft 3 kts 290°
2026-05-05 18:00 44.57984 26.12704 308 ft 3 kts 264°
2026-05-05 18:00 44.57984 26.12697 308 ft 0 kts 264°
2026-05-05 18:01 44.57974 26.12565 309 ft 45 kts 263°
2026-05-05 18:01 44.57893 26.11623 309 ft 141 kts 264°
2026-05-05 18:01 44.57766 26.09988 445 ft 187 kts 260°
2026-05-05 18:01 44.57564 26.08120 1175 ft 199 kts 260°
2026-05-05 18:02 44.57414 26.06235 2171 ft 199 kts 263°
2026-05-05 18:02 44.57276 26.04357 3187 ft 195 kts 263°
2026-05-05 18:02 44.57141 26.02493 4120 ft 197 kts 264°
2026-05-05 18:02 44.57002 26.00587 5034 ft 199 kts 265°
2026-05-05 18:03 44.56587 25.98759 5872 ft 207 kts 235°
2026-05-05 18:03 44.55499 25.97439 6669 ft 217 kts 219°
2026-05-05 18:03 44.54271 25.96189 7459 ft 224 kts 219°
2026-05-05 18:03 44.52979 25.94898 8278 ft 231 kts 218°
2026-05-05 18:04 44.51665 25.93600 9091 ft 237 kts 217°
2026-05-05 18:04 44.50326 25.92283 9890 ft 241 kts 216°
2026-05-05 18:04 44.48949 25.90936 10677 ft 246 kts 216°
2026-05-05 18:04 44.47549 25.89566 11485 ft 249 kts 216°
2026-05-05 18:05 44.46128 25.88181 12298 ft 254 kts 215°
2026-05-05 18:05 44.44665 25.86755 13137 ft 257 kts 215°
2026-05-05 18:05 44.43208 25.85339 13955 ft 261 kts 215°
2026-05-05 18:05 44.41725 25.83900 14820 ft 263 kts 215°
2026-05-05 18:06 44.40217 25.82438 15698 ft 265 kts 215°
2026-05-05 18:06 44.39230 25.81482 16258 ft 266 kts 215°
2026-05-05 18:06 44.37203 25.79518 17386 ft 269 kts 215°
2026-05-05 18:06 44.35600 25.78160 18209 ft 272 kts 201°
2026-05-05 18:07 44.33749 25.77989 18941 ft 271 kts 163°
2026-05-05 18:07 44.32127 25.79237 19669 ft 269 kts 139°
2026-05-05 18:07 44.30705 25.80897 20427 ft 272 kts 136°
2026-05-05 18:07 44.29288 25.82645 21197 ft 276 kts 135°
2026-05-05 18:08 44.27871 25.84459 21985 ft 278 kts 134°
2026-05-05 18:08 44.26467 25.86301 22730 ft 282 kts 134°
2026-05-05 18:08 44.25048 25.88196 23461 ft 286 kts 134°
2026-05-05 18:08 44.23523 25.90266 23274 ft 320 kts 133°
2026-05-05 18:09 44.21937 25.92445 23295 ft 323 kts 133°
2026-05-05 18:09 44.20341 25.94644 23298 ft 325 kts 133°
2026-05-05 18:09 44.18746 25.96853 23298 ft 326 kts 133°
2026-05-05 18:09 44.17134 25.99091 23226 ft 329 kts 133°
2026-05-05 18:10 44.15499 26.01364 23132 ft 333 kts 133°
2026-05-05 18:10 44.13877 26.03619 23039 ft 336 kts 133°
2026-05-05 18:10 44.12208 26.05938 23005 ft 337 kts 133°
2026-05-05 18:10 44.10554 26.08239 22997 ft 337 kts 133°
2026-05-05 18:11 44.08897 26.10543 22995 ft 337 kts 133°
2026-05-05 18:11 44.07251 26.12832 22994 ft 337 kts 133°
2026-05-05 18:11 44.05598 26.15127 22994 ft 337 kts 133°
2026-05-05 18:11 44.03942 26.17425 22994 ft 336 kts 133°
2026-05-05 18:12 44.02268 26.19749 22994 ft 336 kts 133°
2026-05-05 18:12 44.00627 26.22023 22994 ft 336 kts 133°
2026-05-05 18:12 43.98980 26.24305 22993 ft 336 kts 133°
2026-05-05 18:12 43.97325 26.26596 22994 ft 336 kts 131°
2026-05-05 18:13 43.95654 26.28908 22994 ft 336 kts 131°
2026-05-05 18:13 43.94018 26.31169 22993 ft 335 kts 131°
2026-05-05 18:13 43.92367 26.33449 22993 ft 334 kts 131°
2026-05-05 18:13 43.90723 26.35719 22994 ft 334 kts 131°
2026-05-05 18:14 43.89065 26.38005 22992 ft 334 kts 131°
2026-05-05 18:14 43.87427 26.40249 22993 ft 334 kts 132°
2026-05-05 18:14 43.85727 26.42422 22994 ft 335 kts 134°
2026-05-05 18:14 43.83974 26.44596 22994 ft 335 kts 135°
2026-05-05 18:15 43.82257 26.46718 22994 ft 335 kts 135°
2026-05-05 18:15 43.80524 26.48859 22994 ft 335 kts 135°
2026-05-05 18:15 43.78770 26.51024 22994 ft 335 kts 135°
2026-05-05 18:15 43.77069 26.53216 22990 ft 334 kts 130°
2026-05-05 18:16 43.75517 26.55598 22993 ft 332 kts 128°
2026-05-05 18:16 43.73984 26.57957 22993 ft 333 kts 128°
2026-05-05 18:16 43.72408 26.60311 22994 ft 333 kts 129°
2026-05-05 18:16 43.70808 26.62643 22994 ft 333 kts 130°
2026-05-05 18:17 43.69197 26.64951 22994 ft 333 kts 130°
2026-05-05 18:17 43.67581 26.67236 22994 ft 333 kts 131°
2026-05-05 18:17 43.65953 26.69513 22994 ft 333 kts 131°
2026-05-05 18:17 43.64331 26.71765 22994 ft 333 kts 131°
2026-05-05 18:18 43.62690 26.74031 22994 ft 333 kts 132°
2026-05-05 18:18 43.61052 26.76281 22999 ft 333 kts 132°
2026-05-05 18:18 43.59415 26.78523 23051 ft 331 kts 132°
2026-05-05 18:18 43.57785 26.80748 23069 ft 330 kts 132°
2026-05-05 18:19 43.56139 26.82989 23074 ft 330 kts 132°
2026-05-05 18:19 43.54499 26.85220 23075 ft 330 kts 133°
2026-05-05 18:19 43.52857 26.87448 23075 ft 331 kts 133°
2026-05-05 18:19 43.51224 26.89662 23075 ft 331 kts 133°
2026-05-05 18:20 43.49576 26.91893 23075 ft 332 kts 133°
2026-05-05 18:20 43.47933 26.94115 23075 ft 332 kts 133°
2026-05-05 18:20 43.46281 26.96349 23080 ft 337 kts 133°
2026-05-05 18:20 43.44588 26.98632 23079 ft 341 kts 133°
2026-05-05 18:21 43.42882 27.00932 23079 ft 345 kts 133°
2026-05-05 18:21 43.41151 27.03261 23078 ft 349 kts 133°
2026-05-05 18:21 43.39414 27.05599 23078 ft 352 kts 133°
2026-05-05 18:21 43.37664 27.07951 23077 ft 355 kts 133°
2026-05-05 18:22 43.35885 27.10341 23077 ft 357 kts 133°
2026-05-05 18:22 43.34122 27.12707 23076 ft 358 kts 133°
2026-05-05 18:22 43.32339 27.15097 23076 ft 359 kts 133°
2026-05-05 18:22 43.30557 27.17483 23076 ft 360 kts 133°
2026-05-05 18:23 43.28757 27.19893 23076 ft 361 kts 133°
2026-05-05 18:23 43.26959 27.22298 23076 ft 362 kts 133°
2026-05-05 18:23 43.25172 27.24685 23075 ft 362 kts 133°
2026-05-05 18:23 43.23359 27.27106 23077 ft 362 kts 133°
2026-05-05 18:24 43.21565 27.29497 23075 ft 361 kts 133°
2026-05-05 18:24 43.19774 27.31885 23074 ft 360 kts 133°
2026-05-05 18:24 43.17969 27.34287 23075 ft 359 kts 133°
2026-05-05 18:24 43.16196 27.36645 23075 ft 359 kts 132°
2026-05-05 18:25 43.14395 27.39040 23075 ft 359 kts 132°
2026-05-05 18:25 43.13211 27.40613 23074 ft 358 kts 133°
2026-05-05 18:25 43.10816 27.43791 23075 ft 357 kts 132°
2026-05-05 18:25 43.09039 27.46147 23075 ft 357 kts 132°
2026-05-05 18:26 43.07256 27.48509 23075 ft 358 kts 132°
2026-05-05 18:26 43.05486 27.50852 23075 ft 358 kts 132°
2026-05-05 18:26 43.03701 27.53212 23075 ft 358 kts 132°
2026-05-05 18:26 43.01893 27.55601 23075 ft 357 kts 132°
2026-05-05 18:27 43.00132 27.57927 23075 ft 358 kts 132°
2026-05-05 18:27 42.98344 27.60285 23075 ft 358 kts 132°
2026-05-05 18:27 42.96536 27.62669 23075 ft 357 kts 133°
2026-05-05 18:27 42.94761 27.65005 23075 ft 357 kts 133°
2026-05-05 18:28 42.91185 27.69709 23075 ft 358 kts 133°
2026-05-05 18:28 42.89389 27.72068 23074 ft 358 kts 133°
2026-05-05 18:28 42.87613 27.74398 23074 ft 358 kts 133°
2026-05-05 18:29 42.85818 27.76751 23076 ft 356 kts 133°
2026-05-05 18:29 42.84023 27.79103 23075 ft 356 kts 133°
2026-05-05 18:29 42.82249 27.81424 23075 ft 356 kts 133°
2026-05-05 18:29 42.80458 27.83767 23075 ft 356 kts 133°
2026-05-05 18:30 42.78661 27.86116 23074 ft 355 kts 133°
2026-05-05 18:30 42.76891 27.88426 23075 ft 355 kts 133°
2026-05-05 18:30 42.75100 27.90763 23074 ft 354 kts 133°
2026-05-05 18:30 42.73315 27.93091 23076 ft 354 kts 134°
2026-05-05 18:31 42.71552 27.95388 23076 ft 355 kts 134°
2026-05-05 18:31 42.69761 27.97719 23075 ft 355 kts 134°
2026-05-05 18:31 42.67985 28.00028 23075 ft 355 kts 134°
2026-05-05 18:31 42.66204 28.02341 23075 ft 356 kts 134°
2026-05-05 18:32 42.64417 28.04661 23075 ft 356 kts 134°
2026-05-05 18:32 42.62608 28.07007 23075 ft 356 kts 134°
2026-05-05 18:32 42.60822 28.09321 23075 ft 356 kts 134°
2026-05-05 18:32 42.59040 28.11628 23075 ft 356 kts 134°
2026-05-05 18:33 42.57257 28.13935 23075 ft 356 kts 134°
2026-05-05 18:33 42.55466 28.16250 23075 ft 356 kts 134°
2026-05-05 18:33 42.53675 28.18563 23075 ft 356 kts 134°
2026-05-05 18:33 42.51883 28.20877 23075 ft 356 kts 134°
2026-05-05 18:34 42.50079 28.23202 23075 ft 356 kts 134°
2026-05-05 18:34 42.48284 28.25515 23075 ft 356 kts 134°
2026-05-05 18:34 42.46499 28.27813 23075 ft 356 kts 134°
2026-05-05 18:34 42.44691 28.30138 23075 ft 356 kts 134°
2026-05-05 18:35 42.42914 28.32421 23075 ft 356 kts 134°
2026-05-05 18:35 42.41124 28.34720 23075 ft 356 kts 134°
2026-05-05 18:35 42.39312 28.37046 23075 ft 356 kts 134°
2026-05-05 18:35 42.37517 28.39347 23075 ft 356 kts 134°
2026-05-05 18:36 42.35731 28.41634 23075 ft 356 kts 134°
2026-05-05 18:36 42.33931 28.43938 23075 ft 356 kts 134°
2026-05-05 18:36 42.32148 28.46218 23075 ft 356 kts 134°
2026-05-05 18:36 42.30332 28.48539 23075 ft 356 kts 134°
2026-05-05 18:37 42.28552 28.50812 23075 ft 356 kts 134°
2026-05-05 18:37 42.26745 28.53118 23075 ft 356 kts 134°
2026-05-05 18:37 42.24949 28.55406 23075 ft 356 kts 134°
2026-05-05 18:37 42.23154 28.57692 23075 ft 356 kts 134°
2026-05-05 18:38 42.21361 28.59974 23075 ft 356 kts 134°
2026-05-05 18:38 42.19573 28.62247 23075 ft 356 kts 134°
2026-05-05 18:38 42.17780 28.64525 23075 ft 356 kts 134°
2026-05-05 18:38 42.15979 28.66812 23075 ft 355 kts 135°
2026-05-05 18:39 42.14174 28.69100 23074 ft 355 kts 135°
2026-05-05 18:39 42.12368 28.71388 23075 ft 355 kts 135°
2026-05-05 18:39 42.10589 28.73641 23075 ft 355 kts 135°
2026-05-05 18:39 42.08654 28.75734 23047 ft 358 kts 148°
2026-05-05 18:40 42.06285 28.76672 23036 ft 360 kts 172°
2026-05-05 18:40 42.03759 28.76857 22716 ft 365 kts 178°
2026-05-05 18:40 42.01265 28.76947 22342 ft 360 kts 178°
2026-05-05 18:40 41.98754 28.77034 21963 ft 359 kts 178°
2026-05-05 18:41 41.96264 28.77121 21587 ft 357 kts 178°
2026-05-05 18:41 41.93816 28.77209 21261 ft 354 kts 178°
2026-05-05 18:41 41.91342 28.77300 20955 ft 351 kts 178°
2026-05-05 18:41 41.88937 28.77391 20653 ft 348 kts 178°
2026-05-05 18:42 41.86533 28.77483 20349 ft 344 kts 178°
2026-05-05 18:42 41.84145 28.77574 20046 ft 342 kts 178°
2026-05-05 18:42 41.81782 28.77664 19747 ft 341 kts 178°
2026-05-05 18:42 41.79401 28.77749 19443 ft 340 kts 179°
2026-05-05 18:43 41.77092 28.77288 19115 ft 337 kts 201°
2026-05-05 18:43 41.75209 28.75532 18816 ft 330 kts 229°
2026-05-05 18:43 41.73798 28.73168 18541 ft 327 kts 236°
2026-05-05 18:43 41.72429 28.70707 18240 ft 327 kts 237°
2026-05-05 18:44 41.71086 28.68271 17950 ft 327 kts 237°
2026-05-05 18:44 41.69746 28.65830 17677 ft 327 kts 237°
2026-05-05 18:44 41.68389 28.63354 17401 ft 328 kts 237°
2026-05-05 18:44 41.67055 28.60920 17129 ft 328 kts 237°
2026-05-05 18:45 41.65711 28.58467 16856 ft 328 kts 237°
2026-05-05 18:45 41.64354 28.55991 16578 ft 327 kts 237°
2026-05-05 18:45 41.63012 28.53543 16305 ft 328 kts 237°
2026-05-05 18:45 41.61663 28.51081 16030 ft 328 kts 237°
2026-05-05 18:46 41.60308 28.48612 15754 ft 328 kts 237°
2026-05-05 18:46 41.58944 28.46129 15476 ft 327 kts 237°
2026-05-05 18:46 41.57597 28.43676 15202 ft 327 kts 237°
2026-05-05 18:46 41.56250 28.41225 14927 ft 327 kts 237°
2026-05-05 18:47 41.54888 28.38751 14649 ft 326 kts 237°
2026-05-05 18:47 41.53542 28.36307 14373 ft 326 kts 237°
2026-05-05 18:47 41.52187 28.33896 14099 ft 326 kts 236°
2026-05-05 18:47 41.50808 28.31471 13822 ft 326 kts 236°
2026-05-05 18:48 41.49426 28.29041 13546 ft 326 kts 236°
2026-05-05 18:48 41.48053 28.26625 13271 ft 326 kts 236°
2026-05-05 18:48 41.46688 28.24226 12997 ft 326 kts 236°
2026-05-05 18:48 41.45303 28.21794 12718 ft 325 kts 236°
2026-05-05 18:49 41.43950 28.19417 12446 ft 325 kts 236°
2026-05-05 18:49 41.42580 28.17012 12171 ft 325 kts 236°
2026-05-05 18:49 41.41164 28.14639 11886 ft 326 kts 231°
2026-05-05 18:49 41.39254 28.12987 11586 ft 331 kts 201°
2026-05-05 18:50 41.36986 28.12694 11324 ft 329 kts 175°
2026-05-05 18:50 41.34708 28.13093 11064 ft 329 kts 170°
2026-05-05 18:50 41.32437 28.13588 10788 ft 329 kts 169°
2026-05-05 18:50 41.30194 28.14121 10515 ft 328 kts 168°
2026-05-05 18:51 41.27939 28.14683 10238 ft 328 kts 168°
2026-05-05 18:51 41.25691 28.15262 9962 ft 327 kts 168°
2026-05-05 18:51 41.23503 28.16140 9665 ft 324 kts 152°
2026-05-05 18:51 41.21585 28.17693 9406 ft 321 kts 144°
2026-05-05 18:52 41.19722 28.19315 9133 ft 321 kts 144°
2026-05-05 18:52 41.17863 28.20944 8856 ft 317 kts 143°
2026-05-05 18:52 41.16031 28.22549 8567 ft 305 kts 143°
2026-05-05 18:52 41.14327 28.24038 8274 ft 287 kts 143°
2026-05-05 18:53 41.12681 28.25479 7976 ft 272 kts 144°
2026-05-05 18:53 41.11154 28.26817 7687 ft 258 kts 144°
2026-05-05 18:53 41.09686 28.28103 7392 ft 246 kts 144°
2026-05-05 18:53 41.08288 28.29327 7097 ft 234 kts 143°
2026-05-05 18:54 41.06957 28.30492 6800 ft 223 kts 143°
2026-05-05 18:54 41.05695 28.31596 6505 ft 213 kts 143°
2026-05-05 18:54 41.04477 28.32661 6205 ft 204 kts 143°
2026-05-05 18:54 41.03260 28.33732 5953 ft 219 kts 143°
2026-05-05 18:55 41.01940 28.34885 5709 ft 233 kts 144°
2026-05-05 18:55 41.00541 28.36106 5457 ft 245 kts 144°
2026-05-05 18:55 40.99094 28.37373 5201 ft 254 kts 143°
2026-05-05 18:55 40.97872 28.39048 4912 ft 255 kts 114°
2026-05-05 18:56 40.97523 28.41312 4662 ft 251 kts 87°
2026-05-05 18:56 40.97513 28.43636 4406 ft 256 kts 85°
2026-05-05 18:56 40.97519 28.46047 4146 ft 257 kts 85°
2026-05-05 18:56 40.97525 28.48374 4049 ft 251 kts 85°
2026-05-05 18:57 40.97358 28.50664 4019 ft 246 kts 96°
2026-05-05 18:57 40.97010 28.52869 4067 ft 239 kts 98°
2026-05-05 18:57 40.96659 28.55022 4026 ft 236 kts 98°
2026-05-05 18:57 40.96311 28.57160 4013 ft 233 kts 97°
2026-05-05 18:58 40.95986 28.59267 4006 ft 228 kts 94°
2026-05-05 18:58 40.95915 28.61332 3990 ft 223 kts 84°
2026-05-05 18:58 40.95945 28.63434 3822 ft 228 kts 84°
2026-05-05 18:58 40.95978 28.65546 3632 ft 233 kts 85°
2026-05-05 18:59 40.96228 28.67658 3409 ft 230 kts 63°
2026-05-05 18:59 40.97271 28.69142 3205 ft 214 kts 30°
2026-05-05 18:59 40.98535 28.70110 3073 ft 202 kts 25°
2026-05-05 18:59 40.99808 28.70669 3023 ft 182 kts
2026-05-05 19:00 41.01018 28.70898 3031 ft 167 kts
2026-05-05 19:00 41.02186 28.71147 3034 ft 168 kts
2026-05-05 19:00 41.03327 28.71220 3021 ft 164 kts 355°
2026-05-05 19:00 41.04481 28.71164 3014 ft 163 kts 358°
2026-05-05 19:01 41.05620 28.71169 3011 ft 160 kts 357°
2026-05-05 19:01 41.06735 28.71143 3014 ft 162 kts 357°
2026-05-05 19:01 41.07883 28.71125 3015 ft 166 kts 357°
2026-05-05 19:01 41.08506 28.71114 3016 ft 167 kts 357°
2026-05-05 19:02 41.09686 28.71091 3015 ft 170 kts 357°
2026-05-05 19:02 41.10869 28.71069 3015 ft 172 kts 357°
2026-05-05 19:02 41.12075 28.71045 3015 ft 174 kts 357°
2026-05-05 19:02 41.13272 28.71022 2947 ft 161 kts 356°
2026-05-05 19:03 41.14350 28.70992 2674 ft 152 kts 356°
2026-05-05 19:03 41.15382 28.70974 2475 ft 147 kts 356°
2026-05-05 19:03 41.16381 28.70954 2264 ft 137 kts 356°
2026-05-05 19:03 41.17284 28.70931 2052 ft 125 kts 358°
2026-05-05 19:04 41.18141 28.70916 1930 ft 123 kts
2026-05-05 19:04 41.19009 28.70893 1818 ft 127 kts
2026-05-05 19:04 41.19925 28.70850 1651 ft 134 kts
2026-05-05 19:04 41.20854 28.70837 1551 ft 133 kts
2026-05-05 19:05 41.21762 28.70877 1375 ft 128 kts
2026-05-05 19:05 41.22697 28.70840 1307 ft 138 kts 359°
2026-05-05 19:05 41.23684 28.70768 1100 ft 147 kts
2026-05-05 19:05 41.24712 28.70764 782 ft 146 kts 359°
2026-05-05 19:06 41.25721 28.70753 614 ft 145 kts 356°
2026-05-05 19:06 41.26675 28.70735 352 ft 129 kts 356°
2026-05-05 19:06 41.27334 28.70712 335 ft 60 kts 359°
2026-05-05 19:06 41.27732 28.70673 335 ft 50 kts 360°
2026-05-05 19:07 41.28053 28.70693 335 ft 32 kts
2026-05-05 19:07 41.28297 28.70761 335 ft 36 kts 25°
2026-05-05 19:07 41.28408 28.70842 335 ft 17 kts 37°
2026-05-05 19:07 41.28431 28.70865 335 ft 0 kts 37°
2026-05-05 19:08 41.28447 28.70882 335 ft 10 kts 38°
2026-05-05 19:08 41.28505 28.70977 335 ft 10 kts 88°
2026-05-05 19:08 41.28505 28.71024 335 ft 7 kts 90°
2026-05-05 19:08 41.28491 28.71150 335 ft 19 kts 125°
2026-05-05 19:09 41.28345 28.71188 335 ft 18 kts 179°
2026-05-05 19:09 41.28232 28.71189 335 ft 19 kts 181°
2026-05-05 19:09 41.28054 28.71192 335 ft 31 kts 179°
2026-05-05 19:09 41.27876 28.71195 335 ft 14 kts 179°
2026-05-05 19:10 41.27786 28.71205 335 ft 15 kts 153°
2026-05-05 19:10 41.27760 28.71341 335 ft 12 kts 90°
2026-05-05 19:10 41.27760 28.71403 335 ft 0 kts 90°